アトラス彗星

C/2021 Y1 ( ATLAS )

English version
Home page
Updated on February 7, 2023

---------------------------------------------------------------------

・ プロフィール

発見日 2021年12月26日
発見光度 18.9等
発見者 Asteroid Terrestrial-Impact Last Alert System (ATLAS) search program

・ 写真集

・ 軌道要素

Epoch 2023 Feb. 25.0 TT = JDT 2460000.5
T 2023 Apr. 30.70233 TT                                 Rudenko
q   2.0324059            (2000.0)            P               Q
z  -0.0004287      Peri.  245.81543     -0.00833359     -0.47100449
 +/-0.0000015      Node   244.77015     +0.77294537     -0.56268757
e   1.0008712      Incl.   77.19038     -0.63441785     -0.67936548
>From 1292 observations 2021 Nov. 8-2022 Dec. 22, mean residual 0".5.

・ 星図

・ 光度変化

        m1 = 9.5 + 5 logΔ + 7.0 log r

---------------------------------------------------------------------

軌道要素はM.P.E.C. 2022-Y114に掲載されたものです。
星図はステラナビゲータ Ver.10 (アストロアーツ) で作成したものです。
光度グラフはComet for Windowsで作成したものです。

---------------------------------------------------------------------

Copyright(C) Seiichi Yoshida (comet@aerith.net). All rights reserved.